
Software Engineer
| Date Time MST |
Temp °F |
RH % |
DewPt °F |
Wind mph |
Dir ° |
Gust mph |
Dir ° |
Press in Hg |
Solar W/m^2 |
Prec in |
|---|---|---|---|---|---|---|---|---|---|---|
| 2026-05-02 21:30 | 52.0 | 25.9 | 18.0 | 1.3 | 175 | 2.1 | 229 | 24.871 | 0.0 | 0.00 |
| 2026-05-02 21:25 | 52.4 | 26.6 | 19.1 | 1.5 | 274 | 2.8 | 213 | 24.873 | 0.0 | 0.00 |
| 2026-05-02 21:20 | 51.9 | 25.0 | 17.1 | 0.5 | 183 | 1.2 | 26 | 24.874 | 0.0 | 0.00 |
| 2026-05-02 21:15 | 51.9 | 25.6 | 17.7 | 2.7 | 26 | 3.9 | 351 | 24.875 | 0.0 | 0.00 |
| 2026-05-02 21:10 | 52.6 | 25.5 | 18.3 | 3.3 | 351 | 4.5 | 354 | 24.874 | 0.0 | 0.00 |
| 2026-05-02 21:05 | 52.7 | 26.2 | 19.0 | 2.7 | 302 | 2.9 | 298 | 24.873 | 0.0 | 0.00 |
| 2026-05-02 21:00 | 52.1 | 25.4 | 17.7 | 3.1 | 302 | 3.7 | 283 | 24.871 | 0.0 | 0.00 |
| 2026-05-02 20:55 | 51.1 | 25.3 | 16.7 | 2.7 | 306 | 3.5 | 296 | 24.869 | 0.0 | 0.00 |
| 2026-05-02 20:50 | 51.5 | 27.8 | 19.3 | 2.9 | 311 | 3.7 | 285 | 24.869 | 0.0 | 0.00 |
| 2026-05-02 20:45 | 51.4 | 28.0 | 19.4 | 2.5 | 296 | 3.0 | 354 | 24.866 | 0.0 | 0.00 |
| 2026-05-02 20:40 | 51.7 | 26.2 | 18.0 | 3.7 | 5 | 4.7 | 353 | 24.865 | 0.0 | 0.00 |
| 2026-05-02 20:35 | 52.7 | 24.9 | 17.7 | 3.8 | 5 | 4.9 | 8 | 24.863 | 0.0 | 0.00 |
| 2026-05-02 20:30 | 55.3 | 21.5 | 16.6 | 2.3 | 18 | 3.4 | 17 | 24.861 | 0.0 | 0.00 |
| 2026-05-02 20:25 | 58.9 | 17.0 | 14.2 | 0.4 | 82 | 1.4 | 82 | 24.857 | 0.0 | 0.00 |
| 2026-05-02 20:20 | 60.1 | 13.7 | 10.3 | 1.4 | 158 | 2.6 | 216 | 24.856 | 0.0 | 0.00 |
| 2026-05-02 20:15 | 60.4 | 13.4 | 10.0 | 3.0 | 223 | 4.6 | 198 | 24.855 | 0.0 | 0.00 |
| 2026-05-02 20:10 | 60.3 | 13.6 | 10.1 | 4.8 | 166 | 6.7 | 182 | 24.853 | 0.1 | 0.00 |
| 2026-05-02 20:05 | 59.6 | 13.7 | 9.7 | 4.7 | 182 | 6.4 | 178 | 24.852 | 0.1 | 0.00 |
| 2026-05-02 20:00 | 59.2 | 13.7 | 9.5 | 4.4 | 173 | 5.7 | 172 | 24.851 | 0.1 | 0.00 |
| 2026-05-02 19:55 | 59.3 | 14.2 | 10.3 | 4.6 | 174 | 5.7 | 163 | 24.850 | 0.2 | 0.00 |
| 2026-05-02 19:50 | 59.5 | 14.1 | 10.4 | 5.1 | 174 | 6.1 | 162 | 24.851 | 0.2 | 0.00 |
| 2026-05-02 19:45 | 60.4 | 14.7 | 12.0 | 4.2 | 160 | 4.8 | 149 | 24.852 | 0.2 | 0.00 |
| 2026-05-02 19:40 | 60.7 | 13.7 | 10.8 | 3.2 | 161 | 4.1 | 145 | 24.851 | 0.2 | 0.00 |
| 2026-05-02 19:35 | 60.9 | 13.6 | 10.6 | 3.4 | 146 | 4.3 | 155 | 24.850 | 0.2 | 0.00 |
| 2026-05-02 19:30 | 61.1 | 14.2 | 11.9 | 3.5 | 159 | 4.5 | 174 | 24.848 | 0.2 | 0.00 |
| 2026-05-02 19:25 | 61.2 | 14.3 | 12.1 | 3.5 | 186 | 4.5 | 178 | 24.846 | 0.2 | 0.00 |
| 2026-05-02 19:20 | 61.5 | 14.4 | 12.5 | 3.7 | 165 | 5.0 | 183 | 24.845 | 0.3 | 0.00 |
| 2026-05-02 19:15 | 61.9 | 14.2 | 12.6 | 4.5 | 177 | 6.4 | 176 | 24.845 | 0.5 | 0.00 |
| 2026-05-02 19:10 | 62.3 | 14.4 | 13.1 | 5.2 | 180 | 6.9 | 183 | 24.844 | 1.0 | 0.00 |
| 2026-05-02 19:05 | 62.8 | 14.0 | 12.8 | 5.3 | 192 | 7.1 | 187 | 24.843 | 1.7 | 0.00 |
| Date Time MST |
Temp °C |
RH % |
DewPt °C |
Wind m/s |
Dir ° |
Gust m/s |
Dir ° |
Press hPa |
Solar W/m^2 |
Prec mm |
|---|---|---|---|---|---|---|---|---|---|---|
| 2026-05-02 21:30 | 11.1 | 25.9 | -7.8 | 0.6 | 175 | 0.9 | 229 | 842.21 | 0.0 | 0.00 |
| 2026-05-02 21:25 | 11.4 | 26.6 | -7.2 | 0.7 | 274 | 1.3 | 213 | 842.30 | 0.0 | 0.00 |
| 2026-05-02 21:20 | 11.0 | 25.0 | -8.3 | 0.2 | 183 | 0.5 | 26 | 842.34 | 0.0 | 0.00 |
| 2026-05-02 21:15 | 11.0 | 25.6 | -7.9 | 1.2 | 26 | 1.8 | 351 | 842.35 | 0.0 | 0.00 |
| 2026-05-02 21:10 | 11.4 | 25.5 | -7.6 | 1.5 | 351 | 2.0 | 354 | 842.34 | 0.0 | 0.00 |
| 2026-05-02 21:05 | 11.5 | 26.2 | -7.2 | 1.2 | 302 | 1.3 | 298 | 842.31 | 0.0 | 0.00 |
| 2026-05-02 21:00 | 11.1 | 25.4 | -8.0 | 1.4 | 302 | 1.7 | 283 | 842.22 | 0.0 | 0.00 |
| 2026-05-02 20:55 | 10.6 | 25.3 | -8.5 | 1.2 | 306 | 1.5 | 296 | 842.17 | 0.0 | 0.00 |
| 2026-05-02 20:50 | 10.8 | 27.8 | -7.0 | 1.3 | 311 | 1.6 | 285 | 842.16 | 0.0 | 0.00 |
| 2026-05-02 20:45 | 10.8 | 28.0 | -7.0 | 1.1 | 296 | 1.3 | 354 | 842.06 | 0.0 | 0.00 |
| 2026-05-02 20:40 | 10.9 | 26.2 | -7.8 | 1.7 | 5 | 2.1 | 353 | 842.01 | 0.0 | 0.00 |
| 2026-05-02 20:35 | 11.5 | 24.9 | -7.9 | 1.7 | 5 | 2.2 | 8 | 841.95 | 0.0 | 0.00 |
| 2026-05-02 20:30 | 12.9 | 21.5 | -8.6 | 1.0 | 18 | 1.5 | 17 | 841.88 | 0.0 | 0.00 |
| 2026-05-02 20:25 | 14.9 | 17.0 | -9.9 | 0.2 | 82 | 0.6 | 82 | 841.76 | 0.0 | 0.00 |
| 2026-05-02 20:20 | 15.6 | 13.7 | -12.1 | 0.6 | 158 | 1.2 | 216 | 841.71 | 0.0 | 0.00 |
| 2026-05-02 20:15 | 15.8 | 13.4 | -12.2 | 1.4 | 223 | 2.1 | 198 | 841.68 | 0.0 | 0.00 |
| 2026-05-02 20:10 | 15.7 | 13.6 | -12.2 | 2.1 | 166 | 3.0 | 182 | 841.61 | 0.1 | 0.00 |
| 2026-05-02 20:05 | 15.3 | 13.7 | -12.4 | 2.1 | 182 | 2.9 | 178 | 841.60 | 0.1 | 0.00 |
| 2026-05-02 20:00 | 15.1 | 13.7 | -12.5 | 2.0 | 173 | 2.5 | 172 | 841.54 | 0.1 | 0.00 |
| 2026-05-02 19:55 | 15.2 | 14.2 | -12.0 | 2.1 | 174 | 2.5 | 163 | 841.50 | 0.2 | 0.00 |
| 2026-05-02 19:50 | 15.3 | 14.1 | -12.0 | 2.3 | 174 | 2.7 | 162 | 841.54 | 0.2 | 0.00 |
| 2026-05-02 19:45 | 15.8 | 14.7 | -11.1 | 1.9 | 160 | 2.2 | 149 | 841.57 | 0.2 | 0.00 |
| 2026-05-02 19:40 | 15.9 | 13.7 | -11.8 | 1.4 | 161 | 1.8 | 145 | 841.57 | 0.2 | 0.00 |
| 2026-05-02 19:35 | 16.1 | 13.6 | -11.9 | 1.5 | 146 | 1.9 | 155 | 841.51 | 0.2 | 0.00 |
| 2026-05-02 19:30 | 16.2 | 14.2 | -11.2 | 1.5 | 159 | 2.0 | 174 | 841.46 | 0.2 | 0.00 |
| 2026-05-02 19:25 | 16.2 | 14.3 | -11.1 | 1.6 | 186 | 2.0 | 178 | 841.40 | 0.2 | 0.00 |
| 2026-05-02 19:20 | 16.4 | 14.4 | -10.8 | 1.6 | 165 | 2.2 | 183 | 841.36 | 0.3 | 0.00 |
| 2026-05-02 19:15 | 16.6 | 14.2 | -10.8 | 2.0 | 177 | 2.8 | 176 | 841.33 | 0.5 | 0.00 |
| 2026-05-02 19:10 | 16.8 | 14.4 | -10.5 | 2.3 | 180 | 3.1 | 183 | 841.30 | 1.0 | 0.00 |
| 2026-05-02 19:05 | 17.1 | 14.0 | -10.6 | 2.4 | 192 | 3.2 | 187 | 841.28 | 1.7 | 0.00 |

Software Engineer
Cooperative Institute for Research in the Atmosphere
Colorado State University
1375 Campus Delivery
Fort Collins, CO 80523-1375